Back to catalog

PEGASUS DEB

AlivePO
NORAD 24594·DEBRIS·🇺🇸 United States

Launched May 19, 1994 from Vandenberg Space Force Base

Loading…

Next Passes (next 24 hours)

TLE

FreshSource: Space-Track

Epoch: Sep 14, 2026, 11:29 UTC

1 24594U 94029YW  26257.47915082  .00003268  00000-0  66471-3 0  9992
2 24594  81.4444 271.4906 0446218  66.8947 297.8603 14.12953948520250

Track PEGASUS DEB in real time with AllMySat

Download on the App Store